TimeEDT,TemperatureF,Dew PointF,Humidity,Sea Level PressureIn,VisibilityMPH,Wind Direction,Wind SpeedMPH,Gust SpeedMPH,PrecipitationIn,Events,Conditions,WindDirDegrees,DateUTC
12:15 AM,37.4,28.4,70,30.29,10.0,Calm,Calm,-,N/A,,Clear,0,2013-03-10 05:15:00
12:35 AM,37.4,28.4,70,30.28,10.0,Calm,Calm,-,N/A,,Clear,0,2013-03-10 05:35:00
12:55 AM,35.6,26.6,70,30.28,10.0,Calm,Calm,-,N/A,,Clear,0,2013-03-10 05:55:00
1:15 AM,35.6,28.4,75,30.28,10.0,Calm,Calm,-,N/A,,Clear,0,2013-03-10 06:15:00
1:35 AM,37.4,26.6,65,30.28,10.0,Calm,Calm,-,N/A,,Clear,0,2013-03-10 06:35:00
1:55 AM,33.8,28.4,81,30.28,10.0,Calm,Calm,-,N/A,,Clear,0,2013-03-10 06:55:00
3:15 AM,33.8,28.4,81,30.27,10.0,Calm,Calm,-,N/A,,Scattered Clouds,0,2013-03-10 07:15:00
3:35 AM,35.6,26.6,70,30.26,10.0,Calm,Calm,-,N/A,,Mostly Cloudy,0,2013-03-10 07:35:00
3:55 AM,35.6,26.6,70,30.26,10.0,Calm,Calm,-,N/A,,Mostly Cloudy,0,2013-03-10 07:55:00
4:15 AM,32.0,26.6,80,30.25,10.0,Calm,Calm,-,N/A,,Scattered Clouds,0,2013-03-10 08:15:00
4:35 AM,33.8,28.4,81,30.25,10.0,Calm,Calm,-,N/A,,Clear,0,2013-03-10 08:35:00
4:55 AM,35.6,26.6,70,30.25,10.0,Calm,Calm,-,N/A,,Clear,0,2013-03-10 08:55:00
5:15 AM,35.6,26.6,70,30.26,10.0,Calm,Calm,-,N/A,,Clear,0,2013-03-10 09:15:00
5:35 AM,30.2,24.8,80,30.26,10.0,Calm,Calm,-,N/A,,Clear,0,2013-03-10 09:35:00
5:55 AM,30.2,28.4,93,30.26,10.0,Calm,Calm,-,N/A,,Clear,0,2013-03-10 09:55:00
6:15 AM,30.2,26.6,86,30.26,10.0,Calm,Calm,-,N/A,,Clear,0,2013-03-10 10:15:00
6:35 AM,32.0,26.6,80,30.26,10.0,Calm,Calm,-,N/A,,Scattered Clouds,0,2013-03-10 10:35:00
6:55 AM,32.0,26.6,80,30.25,10.0,Calm,Calm,-,N/A,,Clear,0,2013-03-10 10:55:00
7:15 AM,32.0,26.6,80,30.26,10.0,Calm,Calm,-,N/A,,Clear,0,2013-03-10 11:15:00
8:35 AM,33.8,28.4,81,30.27,10.0,Calm,Calm,-,N/A,,Clear,0,2013-03-10 12:35:00
8:55 AM,37.4,30.2,75,30.28,10.0,Calm,Calm,-,N/A,,Clear,0,2013-03-10 12:55:00
9:15 AM,39.2,30.2,70,30.28,10.0,Calm,Calm,-,N/A,,Clear,0,2013-03-10 13:15:00
9:35 AM,41.0,30.2,65,30.28,10.0,Calm,Calm,-,N/A,,Clear,0,2013-03-10 13:35:00
9:55 AM,42.8,32.0,66,30.28,10.0,Calm,Calm,-,N/A,,Scattered Clouds,0,2013-03-10 13:55:00
10:15 AM,42.8,33.8,70,30.29,10.0,Calm,Calm,-,N/A,,Mostly Cloudy,0,2013-03-10 14:15:00
10:35 AM,44.6,33.8,66,30.29,10.0,Calm,Calm,-,N/A,,Overcast,0,2013-03-10 14:35:00
10:55 AM,44.6,33.8,66,30.28,10.0,ENE,3.5,-,N/A,,Mostly Cloudy,70,2013-03-10 14:55:00
11:15 AM,46.4,33.8,62,30.28,10.0,Calm,Calm,-,N/A,,Scattered Clouds,0,2013-03-10 15:15:00
11:35 AM,48.2,30.2,50,30.28,10.0,Calm,Calm,-,N/A,,Clear,0,2013-03-10 15:35:00
11:55 AM,48.2,33.8,58,30.27,10.0,Calm,Calm,-,N/A,,Clear,0,2013-03-10 15:55:00
12:15 PM,53.6,32.0,44,30.26,10.0,East,3.5,-,N/A,,Clear,100,2013-03-10 16:15:00
12:35 PM,55.4,32.0,41,30.25,10.0,East,5.8,-,N/A,,Clear,80,2013-03-10 16:35:00
12:55 PM,57.2,30.2,36,30.24,10.0,ESE,8.1,-,N/A,,Clear,110,2013-03-10 16:55:00
1:15 PM,59.0,30.2,34,30.23,10.0,SE,8.1,-,N/A,,Clear,130,2013-03-10 17:15:00
1:35 PM,62.6,28.4,27,30.22,10.0,SSE,8.1,-,N/A,,Clear,160,2013-03-10 17:35:00
1:55 PM,62.6,28.4,27,30.21,10.0,South,10.4,-,N/A,,Clear,170,2013-03-10 17:55:00
2:15 PM,62.6,28.4,27,30.21,10.0,South,12.7,-,N/A,,Clear,170,2013-03-10 18:15:00
2:35 PM,62.6,26.6,26,30.20,10.0,South,8.1,-,N/A,,Clear,180,2013-03-10 18:35:00
2:55 PM,64.4,26.6,24,30.19,10.0,South,9.2,-,N/A,,Clear,190,2013-03-10 18:55:00
3:15 PM,62.6,26.6,26,30.18,10.0,SSW,5.8,-,N/A,,Clear,200,2013-03-10 19:15:00
3:35 PM,64.4,26.6,24,30.18,10.0,South,8.1,-,N/A,,Clear,170,2013-03-10 19:35:00
3:55 PM,64.4,28.4,26,30.17,10.0,South,11.5,23.0,N/A,,Clear,170,2013-03-10 19:55:00
4:15 PM,64.4,28.4,26,30.17,10.0,ESE,8.1,-,N/A,,Clear,120,2013-03-10 20:15:00
4:35 PM,64.4,28.4,26,30.17,10.0,South,8.1,-,N/A,,Clear,170,2013-03-10 20:35:00
4:55 PM,62.6,28.4,27,30.17,10.0,SSE,9.2,-,N/A,,Clear,160,2013-03-10 20:55:00
5:15 PM,62.6,28.4,27,30.18,10.0,South,11.5,-,N/A,,Clear,170,2013-03-10 21:15:00
5:35 PM,62.6,28.4,27,30.18,10.0,SSE,11.5,-,N/A,,Clear,160,2013-03-10 21:35:00
5:55 PM,60.8,26.6,27,30.18,10.0,SSE,11.5,-,N/A,,Clear,160,2013-03-10 21:55:00
6:15 PM,59.0,26.6,29,30.17,10.0,SSE,10.4,-,N/A,,Clear,160,2013-03-10 22:15:00
6:35 PM,57.2,28.4,33,30.18,10.0,SSE,5.8,-,N/A,,Clear,160,2013-03-10 22:35:00
6:55 PM,57.2,28.4,33,30.18,10.0,South,5.8,-,N/A,,Clear,170,2013-03-10 22:55:00
7:15 PM,55.4,28.4,36,30.18,10.0,SSE,4.6,-,N/A,,Clear,160,2013-03-10 23:15:00
7:35 PM,53.6,30.2,41,30.20,10.0,South,5.8,-,N/A,,Clear,170,2013-03-10 23:35:00
7:55 PM,53.6,28.4,38,30.20,10.0,SSE,3.5,-,N/A,,Clear,160,2013-03-10 23:55:00
8:15 PM,51.8,30.2,44,30.21,10.0,Calm,Calm,-,N/A,,Clear,0,2013-03-11 00:15:00
8:35 PM,51.8,30.2,44,30.21,10.0,SSE,3.5,-,N/A,,Clear,150,2013-03-11 00:35:00
8:55 PM,51.8,30.2,44,30.20,10.0,SE,4.6,-,N/A,,Clear,140,2013-03-11 00:55:00
9:15 PM,51.8,32.0,47,30.21,10.0,SE,3.5,-,N/A,,Clear,130,2013-03-11 01:15:00
9:35 PM,50.0,32.0,50,30.20,10.0,SSE,4.6,-,N/A,,Clear,150,2013-03-11 01:35:00
9:55 PM,50.0,32.0,50,30.21,10.0,Calm,Calm,-,N/A,,Clear,0,2013-03-11 01:55:00
10:15 PM,48.2,33.8,58,30.21,10.0,Calm,Calm,-,N/A,,Clear,0,2013-03-11 02:15:00
10:35 PM,48.2,33.8,58,30.21,10.0,SSE,3.5,-,N/A,,Clear,160,2013-03-11 02:35:00
10:55 PM,48.2,33.8,58,30.20,10.0,Calm,Calm,-,N/A,,Clear,0,2013-03-11 02:55:00
11:15 PM,48.2,30.2,50,30.20,10.0,Calm,Calm,-,N/A,,Clear,0,2013-03-11 03:15:00
11:35 PM,46.4,32.0,57,30.19,10.0,Calm,Calm,-,N/A,,Clear,0,2013-03-11 03:35:00
11:55 PM,46.4,30.2,53,30.19,10.0,Calm,Calm,-,N/A,,Clear,0,2013-03-11 03:55:00
12:15 AM,44.6,32.0,61,30.20,10.0,Calm,Calm,-,N/A,,Clear,0,2013-03-11 04:15:00
12:35 AM,46.4,30.2,53,30.18,10.0,Calm,Calm,-,N/A,,Clear,0,2013-03-11 04:35:00
12:55 AM,42.8,32.0,66,30.17,10.0,Calm,Calm,-,N/A,,Clear,0,2013-03-11 04:55:00